Time,TemperatureF,DewpointF,PressureIn,WindDirection,WindDirectionDegrees,WindSpeedMPH,WindSpeedGustMPH,Humidity,HourlyPrecipIn,Conditions,Clouds,dailyrainin,SoftwareType,DateUTC
2013-05-02 00:02:00,44.9,38.8,30.36,SW,228,2.0,2.0,79,0.00,,,0.01,Wunderground v.1.15,2013-05-02 04:02:00,
2013-05-02 00:04:00,44.8,38.7,30.36,SW,227,1.0,2.0,79,0.00,,,0.00,Wunderground v.1.15,2013-05-02 04:04:00,
2013-05-02 00:06:00,44.7,38.6,30.36,SW,228,1.0,2.0,79,0.00,,,0.00,Wunderground v.1.15,2013-05-02 04:06:00,
2013-05-02 00:12:00,44.7,38.9,30.36,SW,227,1.0,2.0,80,0.00,,,0.00,Wunderground v.1.15,2013-05-02 04:12:00,
2013-05-02 00:14:00,44.6,38.8,30.37,SW,227,1.0,2.0,80,0.00,,,0.00,Wunderground v.1.15,2013-05-02 04:14:00,
2013-05-02 00:20:00,44.4,38.6,30.37,SW,227,1.0,1.0,80,0.00,,,0.00,Wunderground v.1.15,2013-05-02 04:20:00,
2013-05-02 00:26:00,44.1,38.6,30.37,SW,227,1.0,1.0,81,0.00,,,0.00,Wunderground v.1.15,2013-05-02 04:26:00,
2013-05-02 00:32:00,43.8,38.3,30.37,SW,227,0.0,0.0,81,0.00,,,0.00,Wunderground v.1.15,2013-05-02 04:32:00,
2013-05-02 00:38:00,43.7,38.6,30.37,SW,227,0.0,0.0,82,0.00,,,0.00,Wunderground v.1.15,2013-05-02 04:38:00,
2013-05-02 00:44:00,43.5,38.4,30.36,SW,227,0.0,3.0,82,0.00,,,0.00,Wunderground v.1.15,2013-05-02 04:44:00,
2013-05-02 00:50:00,43.5,38.4,30.37,SW,227,1.0,1.0,82,0.00,,,0.00,Wunderground v.1.15,2013-05-02 04:50:00,
2013-05-02 00:56:00,43.3,38.5,30.37,SW,227,1.0,2.0,83,0.00,,,0.00,Wunderground v.1.15,2013-05-02 04:56:00,
2013-05-02 01:02:00,43.2,38.4,30.37,SW,228,1.0,2.0,83,0.00,,,0.00,Wunderground v.1.15,2013-05-02 05:02:00,
2013-05-02 01:08:00,43.2,38.4,30.37,South,182,1.0,2.0,83,0.00,,,0.00,Wunderground v.1.15,2013-05-02 05:08:00,
2013-05-02 01:14:00,43.3,38.5,30.37,SSW,200,2.0,5.0,83,0.00,,,0.00,Wunderground v.1.15,2013-05-02 05:14:00,
2013-05-02 01:20:00,44.3,38.5,30.37,SSW,203,3.0,3.0,80,0.00,,,0.00,Wunderground v.1.15,2013-05-02 05:20:00,
2013-05-02 01:26:00,45.8,39.0,30.37,SE,146,5.0,10.0,77,0.00,,,0.00,Wunderground v.1.15,2013-05-02 05:26:00,
2013-05-02 01:32:00,46.9,38.7,30.38,SW,220,4.0,5.0,73,0.00,,,0.00,Wunderground v.1.15,2013-05-02 05:32:00,
2013-05-02 01:38:00,47.4,38.5,30.38,South,173,3.0,6.0,71,0.00,,,0.00,Wunderground v.1.15,2013-05-02 05:38:00,
2013-05-02 01:44:00,47.7,38.4,30.38,SSE,162,4.0,5.0,70,0.00,,,0.00,Wunderground v.1.15,2013-05-02 05:44:00,
2013-05-02 01:50:00,48.5,38.4,30.38,South,189,4.0,5.0,68,0.00,,,0.00,Wunderground v.1.15,2013-05-02 05:50:00,
2013-05-02 01:56:00,48.9,38.4,30.38,SSE,165,3.0,5.0,67,0.00,,,0.00,Wunderground v.1.15,2013-05-02 05:56:00,
2013-05-02 02:02:00,49.5,38.6,30.37,SSW,206,3.0,5.0,66,0.00,,,0.00,Wunderground v.1.15,2013-05-02 06:02:00,
2013-05-02 02:08:00,50.1,38.8,30.37,SSW,192,4.0,6.0,65,0.00,,,0.00,Wunderground v.1.15,2013-05-02 06:08:00,
2013-05-02 02:14:00,50.3,38.2,30.38,SSW,202,4.0,5.0,63,0.00,,,0.00,Wunderground v.1.15,2013-05-02 06:14:00,
2013-05-02 02:20:00,49.7,38.8,30.38,SSW,207,3.0,3.0,66,0.00,,,0.00,Wunderground v.1.15,2013-05-02 06:20:00,
2013-05-02 02:26:00,48.6,38.1,30.37,SW,219,3.0,5.0,67,0.00,,,0.00,Wunderground v.1.15,2013-05-02 06:26:00,
2013-05-02 02:32:00,48.1,38.4,30.37,SW,234,3.0,3.0,69,0.00,,,0.00,Wunderground v.1.15,2013-05-02 06:32:00,
2013-05-02 02:38:00,47.0,38.4,30.38,SW,233,1.0,3.0,72,0.00,,,0.00,Wunderground v.1.15,2013-05-02 06:38:00,
2013-05-02 02:44:00,46.0,37.8,30.38,SW,233,1.0,2.0,73,0.00,,,0.00,Wunderground v.1.15,2013-05-02 06:44:00,
2013-05-02 02:50:00,45.4,38.3,30.38,SW,233,1.0,1.0,76,0.00,,,0.00,Wunderground v.1.15,2013-05-02 06:50:00,
2013-05-02 02:56:00,44.7,37.9,30.37,SW,234,1.0,1.0,77,0.00,,,0.00,Wunderground v.1.15,2013-05-02 06:56:00,
2013-05-02 03:02:00,43.9,37.5,30.38,SW,234,1.0,5.0,78,0.00,,,0.00,Wunderground v.1.15,2013-05-02 07:02:00,
2013-05-02 03:08:00,43.5,37.4,30.38,SW,234,2.0,5.0,79,0.00,,,0.00,Wunderground v.1.15,2013-05-02 07:08:00,
2013-05-02 03:14:00,43.3,37.5,30.38,SW,234,1.0,2.0,80,0.00,,,0.00,Wunderground v.1.15,2013-05-02 07:14:00,
2013-05-02 03:20:00,42.6,37.2,30.38,SW,234,1.0,1.0,81,0.00,,,0.00,Wunderground v.1.15,2013-05-02 07:20:00,
2013-05-02 03:26:00,42.1,37.0,30.38,SW,234,0.0,1.0,82,0.00,,,0.00,Wunderground v.1.15,2013-05-02 07:26:00,
2013-05-02 03:32:00,41.6,36.8,30.38,SW,234,0.0,2.0,83,0.00,,,0.00,Wunderground v.1.15,2013-05-02 07:32:00,
2013-05-02 03:38:00,41.1,36.6,30.38,SW,234,2.0,4.0,84,0.00,,,0.00,Wunderground v.1.15,2013-05-02 07:38:00,
2013-05-02 03:44:00,40.9,36.4,30.38,SW,234,2.0,3.0,84,0.00,,,0.00,Wunderground v.1.15,2013-05-02 07:44:00,
2013-05-02 03:50:00,40.5,36.0,30.38,SW,234,0.0,2.0,84,0.00,,,0.00,Wunderground v.1.15,2013-05-02 07:50:00,
2013-05-02 03:56:00,40.0,35.9,30.38,SW,234,0.0,2.0,85,0.00,,,0.00,Wunderground v.1.15,2013-05-02 07:56:00,
2013-05-02 04:02:00,39.3,35.5,30.37,SW,234,0.0,0.0,86,0.00,,,0.00,Wunderground v.1.15,2013-05-02 08:02:00,
2013-05-02 04:08:00,38.8,35.0,30.37,SW,234,0.0,1.0,86,0.00,,,0.00,Wunderground v.1.15,2013-05-02 08:08:00,
2013-05-02 04:14:00,38.3,34.8,30.37,SW,234,1.0,3.0,87,0.00,,,0.00,Wunderground v.1.15,2013-05-02 08:14:00,
2013-05-02 04:20:00,38.0,34.8,30.37,SW,233,1.0,2.0,88,0.00,,,0.00,Wunderground v.1.15,2013-05-02 08:20:00,
2013-05-02 04:26:00,38.2,35.2,30.37,SW,223,2.0,4.0,89,0.00,,,0.00,Wunderground v.1.15,2013-05-02 08:26:00,
2013-05-02 04:32:00,38.8,35.6,30.37,SW,226,3.0,4.0,88,0.00,,,0.00,Wunderground v.1.15,2013-05-02 08:32:00,
2013-05-02 04:38:00,38.9,35.6,30.37,SW,226,3.0,4.0,88,0.00,,,0.00,Wunderground v.1.15,2013-05-02 08:38:00,
2013-05-02 04:44:00,38.7,35.5,30.37,SW,227,2.0,3.0,88,0.00,,,0.00,Wunderground v.1.15,2013-05-02 08:44:00,
2013-05-02 04:50:00,38.4,34.9,30.37,SW,226,1.0,1.0,87,0.00,,,0.00,Wunderground v.1.15,2013-05-02 08:50:00,
2013-05-02 04:56:00,37.7,34.8,30.37,SW,226,2.0,5.0,89,0.00,,,0.00,Wunderground v.1.15,2013-05-02 08:56:00,
2013-05-02 05:02:00,37.6,34.7,30.37,SW,221,3.0,3.0,89,0.00,,,0.00,Wunderground v.1.15,2013-05-02 09:02:00,
2013-05-02 05:08:00,37.5,34.6,30.37,SW,221,3.0,4.0,89,0.00,,,0.00,Wunderground v.1.15,2013-05-02 09:08:00,
2013-05-02 05:14:00,37.5,34.8,30.37,SW,221,3.0,3.0,90,0.00,,,0.00,Wunderground v.1.15,2013-05-02 09:14:00,
2013-05-02 05:20:00,37.5,34.8,30.37,SW,221,3.0,3.0,90,0.00,,,0.00,Wunderground v.1.15,2013-05-02 09:20:00,
2013-05-02 05:26:00,37.4,34.7,30.37,SW,221,3.0,3.0,90,0.00,,,0.00,Wunderground v.1.15,2013-05-02 09:26:00,
2013-05-02 05:32:00,36.9,34.0,30.37,SW,221,1.0,2.0,89,0.00,,,0.00,Wunderground v.1.15,2013-05-02 09:32:00,
2013-05-02 05:38:00,36.4,33.5,30.37,SW,221,0.0,2.0,89,0.00,,,0.00,Wunderground v.1.15,2013-05-02 09:38:00,
2013-05-02 05:44:00,35.9,33.0,30.37,SW,221,0.0,0.0,89,0.00,,,0.00,Wunderground v.1.15,2013-05-02 09:44:00,
2013-05-02 05:50:00,35.5,32.9,30.37,SW,221,0.0,0.0,90,0.00,,,0.00,Wunderground v.1.15,2013-05-02 09:50:00,
2013-05-02 05:56:00,35.3,32.7,30.37,SW,221,0.0,2.0,90,0.00,,,0.00,Wunderground v.1.15,2013-05-02 09:56:00,
2013-05-02 06:02:00,35.5,33.1,30.37,SW,221,0.0,0.0,91,0.00,,,0.00,Wunderground v.1.15,2013-05-02 10:02:00,
2013-05-02 06:08:00,35.6,33.2,30.37,SW,221,0.0,2.0,91,0.00,,,0.00,Wunderground v.1.15,2013-05-02 10:08:00,
2013-05-02 06:14:00,35.6,33.2,30.38,SW,221,0.0,0.0,91,0.00,,,0.00,Wunderground v.1.15,2013-05-02 10:14:00,
2013-05-02 06:20:00,35.5,33.1,30.38,SW,221,1.0,1.0,91,0.00,,,0.00,Wunderground v.1.15,2013-05-02 10:20:00,
2013-05-02 06:26:00,35.6,33.2,30.38,SW,222,2.0,3.0,91,0.00,,,0.00,Wunderground v.1.15,2013-05-02 10:26:00,
2013-05-02 06:32:00,35.7,33.6,30.38,SW,222,2.0,3.0,92,0.00,,,0.00,Wunderground v.1.15,2013-05-02 10:32:00,
2013-05-02 06:38:00,35.4,33.0,30.38,SW,222,0.0,3.0,91,0.00,,,0.00,Wunderground v.1.15,2013-05-02 10:38:00,
2013-05-02 06:44:00,35.5,33.4,30.38,SW,222,0.0,0.0,92,0.00,,,0.00,Wunderground v.1.15,2013-05-02 10:44:00,
2013-05-02 06:50:00,36.2,34.1,30.39,SW,222,0.0,0.0,92,0.00,,,0.00,Wunderground v.1.15,2013-05-02 10:50:00,
2013-05-02 06:56:00,37.0,34.9,30.39,SW,222,0.0,0.0,92,0.00,,,0.00,Wunderground v.1.15,2013-05-02 10:56:00,
2013-05-02 07:02:00,37.8,36.0,30.39,SW,222,1.0,2.0,93,0.00,,,0.00,Wunderground v.1.15,2013-05-02 11:02:00,
2013-05-02 07:08:00,39.1,37.2,30.39,SSW,210,2.0,3.0,93,0.00,,,0.00,Wunderground v.1.15,2013-05-02 11:08:00,
2013-05-02 07:14:00,40.1,38.2,30.39,SSW,210,1.0,2.0,93,0.00,,,0.00,Wunderground v.1.15,2013-05-02 11:14:00,
2013-05-02 07:20:00,41.3,39.7,30.39,SSW,210,0.0,0.0,94,0.00,,,0.00,Wunderground v.1.15,2013-05-02 11:20:00,
2013-05-02 07:26:00,41.9,40.0,30.39,SSW,210,0.0,0.0,93,0.00,,,0.00,Wunderground v.1.15,2013-05-02 11:26:00,
2013-05-02 07:32:00,42.7,40.8,30.39,SSW,210,0.0,0.0,93,0.00,,,0.00,Wunderground v.1.15,2013-05-02 11:32:00,
2013-05-02 07:38:00,43.2,40.8,30.39,SSW,210,0.0,0.0,91,0.00,,,0.00,Wunderground v.1.15,2013-05-02 11:38:00,
2013-05-02 07:44:00,43.9,40.9,30.39,SSW,210,0.0,0.0,89,0.00,,,0.00,Wunderground v.1.15,2013-05-02 11:44:00,
2013-05-02 07:50:00,45.0,41.7,30.39,SSW,210,0.0,0.0,88,0.00,,,0.00,Wunderground v.1.15,2013-05-02 11:50:00,
2013-05-02 07:56:00,46.5,42.2,30.39,SSW,210,0.0,0.0,85,0.00,,,0.00,Wunderground v.1.15,2013-05-02 11:56:00,
2013-05-02 08:02:00,47.7,43.4,30.39,SSW,210,0.0,0.0,85,0.00,,,0.00,Wunderground v.1.15,2013-05-02 12:02:00,
2013-05-02 08:08:00,49.1,44.2,30.39,SSW,210,0.0,2.0,83,0.00,,,0.00,Wunderground v.1.15,2013-05-02 12:08:00,
2013-05-02 08:14:00,49.8,44.5,30.40,SSW,212,0.0,2.0,82,0.00,,,0.00,Wunderground v.1.15,2013-05-02 12:14:00,
2013-05-02 08:20:00,50.3,45.0,30.40,SSW,212,0.0,0.0,82,0.00,,,0.00,Wunderground v.1.15,2013-05-02 12:20:00,
2013-05-02 08:26:00,51.4,45.4,30.40,SSW,212,0.0,0.0,80,0.00,,,0.00,Wunderground v.1.15,2013-05-02 12:26:00,
2013-05-02 08:32:00,52.5,45.8,30.40,SSW,212,0.0,0.0,78,0.00,,,0.00,Wunderground v.1.15,2013-05-02 12:32:00,
2013-05-02 08:38:00,53.8,46.1,30.40,SSW,211,0.0,0.0,75,0.00,,,0.00,Wunderground v.1.15,2013-05-02 12:38:00,
2013-05-02 08:44:00,54.5,46.7,30.40,SSW,211,0.0,0.0,75,0.00,,,0.00,Wunderground v.1.15,2013-05-02 12:44:00,
2013-05-02 08:50:00,55.1,46.2,30.40,West,268,0.0,1.0,72,0.00,,,0.00,Wunderground v.1.15,2013-05-02 12:50:00,
2013-05-02 08:56:00,55.3,45.7,30.41,ESE,113,1.0,1.0,70,0.00,,,0.00,Wunderground v.1.15,2013-05-02 12:56:00,
2013-05-02 09:02:00,55.8,43.4,30.40,SE,142,3.0,6.0,63,0.00,,,0.00,Wunderground v.1.15,2013-05-02 13:02:00,
2013-05-02 09:08:00,56.8,44.3,30.40,SSE,157,6.0,8.0,63,0.00,,,0.00,Wunderground v.1.15,2013-05-02 13:08:00,
2013-05-02 09:14:00,57.4,44.1,30.40,SSW,194,5.0,7.0,61,0.00,,,0.00,Wunderground v.1.15,2013-05-02 13:14:00,
2013-05-02 09:20:00,57.9,43.7,30.40,SSW,198,2.0,2.0,59,0.00,,,0.00,Wunderground v.1.15,2013-05-02 13:20:00,
2013-05-02 09:26:00,58.5,43.8,30.40,East,97,1.0,3.0,58,0.00,,,0.00,Wunderground v.1.15,2013-05-02 13:26:00,
2013-05-02 09:32:00,58.6,43.9,30.40,SSE,148,2.0,3.0,58,0.00,,,0.00,Wunderground v.1.15,2013-05-02 13:32:00,
2013-05-02 09:38:00,59.0,44.7,30.40,East,83,2.0,4.0,59,0.00,,,0.00,Wunderground v.1.15,2013-05-02 13:38:00,
2013-05-02 09:44:00,58.3,43.6,30.40,East,91,3.0,7.0,58,0.00,,,0.00,Wunderground v.1.15,2013-05-02 13:44:00,
2013-05-02 09:50:00,58.1,43.4,30.40,ESE,120,4.0,4.0,58,0.00,,,0.00,Wunderground v.1.15,2013-05-02 13:50:00,
2013-05-02 09:56:00,58.8,43.6,30.40,ESE,112,2.0,4.0,57,0.00,,,0.00,Wunderground v.1.15,2013-05-02 13:56:00,
2013-05-02 10:02:00,59.1,42.5,30.40,East,79,2.0,8.0,54,0.00,,,0.00,Wunderground v.1.15,2013-05-02 14:02:00,
2013-05-02 10:08:00,59.3,43.6,30.40,SE,132,3.0,8.0,56,0.00,,,0.00,Wunderground v.1.15,2013-05-02 14:08:00,
2013-05-02 10:14:00,59.8,43.6,30.39,SE,143,2.0,6.0,55,0.00,,,0.00,Wunderground v.1.15,2013-05-02 14:14:00,
2013-05-02 10:20:00,60.9,45.1,30.39,East,84,4.0,7.0,56,0.00,,,0.00,Wunderground v.1.15,2013-05-02 14:20:00,
2013-05-02 10:26:00,60.1,42.4,30.39,ENE,76,4.0,7.0,52,0.00,,,0.00,Wunderground v.1.15,2013-05-02 14:26:00,
2013-05-02 10:32:00,60.2,44.4,30.39,SSE,162,2.0,5.0,56,0.00,,,0.00,Wunderground v.1.15,2013-05-02 14:32:00,
2013-05-02 10:38:00,61.4,43.6,30.39,East,84,3.0,5.0,52,0.00,,,0.00,Wunderground v.1.15,2013-05-02 14:38:00,
2013-05-02 10:44:00,61.4,42.1,30.39,East,84,2.0,3.0,49,0.00,,,0.00,Wunderground v.1.15,2013-05-02 14:44:00,
2013-05-02 10:50:00,61.2,43.4,30.39,SSE,153,1.0,1.0,52,0.00,,,0.00,Wunderground v.1.15,2013-05-02 14:50:00,
2013-05-02 10:56:00,61.5,43.2,30.39,East,79,2.0,2.0,51,0.00,,,0.00,Wunderground v.1.15,2013-05-02 14:56:00,
2013-05-02 11:02:00,61.4,45.1,30.39,East,84,4.0,5.0,55,0.00,,,0.00,Wunderground v.1.15,2013-05-02 15:02:00,
2013-05-02 11:08:00,61.9,45.5,30.39,SE,135,3.0,9.0,55,0.00,,,0.00,Wunderground v.1.15,2013-05-02 15:08:00,
2013-05-02 11:14:00,63.1,42.5,30.39,ESE,113,5.0,9.0,47,0.00,,,0.00,Wunderground v.1.15,2013-05-02 15:14:00,
2013-05-02 11:20:00,63.5,42.9,30.39,SSW,202,4.0,4.0,47,0.00,,,0.00,Wunderground v.1.15,2013-05-02 15:20:00,
2013-05-02 11:26:00,63.6,43.0,30.39,SSW,202,4.0,8.0,47,0.00,,,0.00,Wunderground v.1.15,2013-05-02 15:26:00,
2013-05-02 11:32:00,63.5,44.5,30.39,NE,36,4.0,4.0,50,0.00,,,0.00,Wunderground v.1.15,2013-05-02 15:32:00,
2013-05-02 11:38:00,62.7,42.2,30.38,NE,35,2.0,4.0,47,0.00,,,0.00,Wunderground v.1.15,2013-05-02 15:38:00,
2013-05-02 11:44:00,62.9,44.0,30.38,East,89,4.0,8.0,50,0.00,,,0.00,Wunderground v.1.15,2013-05-02 15:44:00,
2013-05-02 11:50:00,63.2,45.3,30.38,NNE,30,6.0,8.0,52,0.00,,,0.00,Wunderground v.1.15,2013-05-02 15:50:00,
2013-05-02 11:56:00,63.7,43.6,30.38,ENE,74,6.0,9.0,48,0.00,,,0.00,Wunderground v.1.15,2013-05-02 15:56:00,
2013-05-02 12:02:00,63.5,41.8,30.38,North,5,6.0,8.0,45,0.00,,,0.00,Wunderground v.1.15,2013-05-02 16:02:00,
2013-05-02 12:08:00,64.5,43.8,30.37,NE,42,5.0,10.0,47,0.00,,,0.00,Wunderground v.1.15,2013-05-02 16:08:00,
2013-05-02 12:14:00,64.3,43.6,30.37,NNE,30,6.0,10.0,47,0.00,,,0.00,Wunderground v.1.15,2013-05-02 16:14:00,
2013-05-02 12:20:00,64.0,45.0,30.37,NNE,29,8.0,12.0,50,0.00,,,0.00,Wunderground v.1.15,2013-05-02 16:20:00,
2013-05-02 12:26:00,64.3,46.3,30.37,NE,51,8.0,12.0,52,0.00,,,0.00,Wunderground v.1.15,2013-05-02 16:26:00,
2013-05-02 12:32:00,64.4,43.7,30.37,ENE,72,6.0,10.0,47,0.00,,,0.00,Wunderground v.1.15,2013-05-02 16:32:00,
2013-05-02 12:38:00,64.7,43.4,30.36,NE,54,7.0,11.0,46,0.00,,,0.00,Wunderground v.1.15,2013-05-02 16:38:00,
2013-05-02 12:44:00,65.0,46.4,30.36,NNE,24,8.0,8.0,51,0.00,,,0.00,Wunderground v.1.15,2013-05-02 16:44:00,
2013-05-02 12:50:00,65.4,44.1,30.36,NNE,30,7.0,8.0,46,0.00,,,0.00,Wunderground v.1.15,2013-05-02 16:50:00,
2013-05-02 12:56:00,65.5,44.2,30.36,NE,40,8.0,12.0,46,0.00,,,0.00,Wunderground v.1.15,2013-05-02 16:56:00,
2013-05-02 13:02:00,65.8,43.9,30.36,ENE,63,9.0,9.0,45,0.00,,,0.00,Wunderground v.1.15,2013-05-02 17:02:00,
2013-05-02 13:08:00,66.4,43.2,30.35,NNE,23,6.0,9.0,43,0.00,,,0.00,Wunderground v.1.15,2013-05-02 17:08:00,
2013-05-02 13:14:00,66.4,42.0,30.35,ENE,73,5.0,7.0,41,0.00,,,0.00,Wunderground v.1.15,2013-05-02 17:14:00,
2013-05-02 13:20:00,66.6,43.4,30.35,NNE,30,7.0,7.0,43,0.00,,,0.00,Wunderground v.1.15,2013-05-02 17:20:00,
2013-05-02 13:26:00,66.7,42.2,30.35,ENE,77,5.0,7.0,41,0.00,,,0.00,Wunderground v.1.15,2013-05-02 17:26:00,
2013-05-02 13:32:00,67.2,44.5,30.34,NNE,19,6.0,6.0,44,0.00,,,0.00,Wunderground v.1.15,2013-05-02 17:32:00,
2013-05-02 13:38:00,67.3,42.1,30.34,NNE,33,7.0,11.0,40,0.00,,,0.00,Wunderground v.1.15,2013-05-02 17:38:00,
2013-05-02 13:44:00,67.6,44.9,30.34,North,355,7.0,9.0,44,0.00,,,0.00,Wunderground v.1.15,2013-05-02 17:44:00,
2013-05-02 13:50:00,68.2,39.5,30.34,East,92,4.0,4.0,35,0.00,,,0.00,Wunderground v.1.15,2013-05-02 17:50:00,
2013-05-02 13:56:00,68.8,40.7,30.35,ENE,71,4.0,7.0,36,0.00,,,0.00,Wunderground v.1.15,2013-05-02 17:56:00,
2013-05-02 14:02:00,70.0,37.1,30.34,South,171,4.0,6.0,30,0.00,,,0.00,Wunderground v.1.15,2013-05-02 18:02:00,
2013-05-02 14:08:00,71.2,39.0,30.34,South,186,4.0,6.0,31,0.00,,,0.00,Wunderground v.1.15,2013-05-02 18:08:00,
2013-05-02 14:14:00,70.0,43.9,30.34,ENE,76,3.0,9.0,39,0.00,,,0.00,Wunderground v.1.15,2013-05-02 18:14:00,
2013-05-02 14:20:00,69.6,39.2,30.34,NNE,19,4.0,8.0,33,0.00,,,0.00,Wunderground v.1.15,2013-05-02 18:20:00,
2013-05-02 14:26:00,70.4,39.9,30.34,SSE,167,7.0,10.0,33,0.00,,,0.00,Wunderground v.1.15,2013-05-02 18:26:00,
2013-05-02 14:32:00,72.1,39.8,30.33,SE,140,6.0,14.0,31,0.00,,,0.00,Wunderground v.1.15,2013-05-02 18:32:00,
2013-05-02 14:38:00,72.2,37.3,30.33,SE,129,6.0,14.0,28,0.00,,,0.00,Wunderground v.1.15,2013-05-02 18:38:00,
2013-05-02 14:44:00,72.2,39.0,30.33,SE,137,4.0,7.0,30,0.00,,,0.00,Wunderground v.1.15,2013-05-02 18:44:00,
2013-05-02 14:50:00,71.6,37.6,30.33,East,82,4.0,5.0,29,0.00,,,0.00,Wunderground v.1.15,2013-05-02 18:50:00,
2013-05-02 14:56:00,71.8,36.9,30.33,SE,134,5.0,12.0,28,0.00,,,0.00,Wunderground v.1.15,2013-05-02 18:56:00,
2013-05-02 15:02:00,73.6,38.5,30.33,ESE,111,8.0,11.0,28,0.00,,,0.00,Wunderground v.1.15,2013-05-02 19:02:00,
2013-05-02 15:08:00,74.0,39.7,30.32,SSE,156,7.0,11.0,29,0.00,,,0.00,Wunderground v.1.15,2013-05-02 19:08:00,
2013-05-02 15:14:00,74.1,37.0,30.32,SE,146,8.0,11.0,26,0.00,,,0.00,Wunderground v.1.15,2013-05-02 19:14:00,
2013-05-02 15:20:00,73.4,38.3,30.32,SSE,157,8.0,9.0,28,0.00,,,0.00,Wunderground v.1.15,2013-05-02 19:20:00,
2013-05-02 15:26:00,73.6,38.5,30.31,SSW,195,7.0,9.0,28,0.00,,,0.00,Wunderground v.1.15,2013-05-02 19:26:00,
2013-05-02 15:32:00,73.5,35.5,30.31,SE,136,6.0,14.0,25,0.00,,,0.00,Wunderground v.1.15,2013-05-02 19:32:00,
2013-05-02 15:38:00,73.7,36.7,30.31,SSE,164,8.0,14.0,26,0.00,,,0.00,Wunderground v.1.15,2013-05-02 19:38:00,
2013-05-02 15:44:00,74.2,37.1,30.31,South,181,6.0,9.0,26,0.00,,,0.00,Wunderground v.1.15,2013-05-02 19:44:00,
2013-05-02 15:50:00,74.5,35.3,30.30,SSE,157,6.0,6.0,24,0.00,,,0.00,Wunderground v.1.15,2013-05-02 19:50:00,
2013-05-02 15:56:00,74.3,36.2,30.30,SSW,202,6.0,7.0,25,0.00,,,0.00,Wunderground v.1.15,2013-05-02 19:56:00,
2013-05-02 16:02:00,74.2,37.1,30.30,SE,136,7.0,10.0,26,0.00,,,0.00,Wunderground v.1.15,2013-05-02 20:02:00,
2013-05-02 16:08:00,74.1,38.9,30.30,SSE,163,8.0,10.0,28,0.00,,,0.00,Wunderground v.1.15,2013-05-02 20:08:00,
2013-05-02 16:14:00,73.0,34.1,30.30,NE,47,5.0,9.0,24,0.00,,,0.00,Wunderground v.1.15,2013-05-02 20:14:00,
2013-05-02 16:20:00,73.1,36.2,30.30,SE,136,4.0,4.0,26,0.00,,,0.00,Wunderground v.1.15,2013-05-02 20:20:00,
2013-05-02 16:26:00,73.4,36.4,30.29,South,169,3.0,7.0,26,0.00,,,0.00,Wunderground v.1.15,2013-05-02 20:26:00,
2013-05-02 16:32:00,72.8,34.9,30.29,ENE,67,5.0,9.0,25,0.00,,,0.00,Wunderground v.1.15,2013-05-02 20:32:00,
2013-05-02 16:38:00,71.6,40.2,30.29,East,98,7.0,12.0,32,0.00,,,0.00,Wunderground v.1.15,2013-05-02 20:38:00,
2013-05-02 16:44:00,73.3,37.3,30.29,South,175,6.0,7.0,27,0.00,,,0.00,Wunderground v.1.15,2013-05-02 20:44:00,
2013-05-02 16:50:00,73.5,37.5,30.29,East,90,4.0,8.0,27,0.00,,,0.00,Wunderground v.1.15,2013-05-02 20:50:00,
2013-05-02 16:56:00,72.9,36.9,30.29,ESE,123,5.0,9.0,27,0.00,,,0.00,Wunderground v.1.15,2013-05-02 20:56:00,
2013-05-02 17:02:00,72.1,36.3,30.29,SE,132,4.0,8.0,27,0.00,,,0.00,Wunderground v.1.15,2013-05-02 21:02:00,
2013-05-02 17:08:00,73.3,36.3,30.29,SSW,195,5.0,8.0,26,0.00,,,0.00,Wunderground v.1.15,2013-05-02 21:08:00,
2013-05-02 17:14:00,73.9,39.6,30.29,SE,141,5.0,7.0,29,0.00,,,0.00,Wunderground v.1.15,2013-05-02 21:14:00,
2013-05-02 17:20:00,74.0,41.4,30.29,SE,128,5.0,7.0,31,0.00,,,0.00,Wunderground v.1.15,2013-05-02 21:20:00,
2013-05-02 17:26:00,73.5,37.5,30.29,SE,138,6.0,9.0,27,0.00,,,0.00,Wunderground v.1.15,2013-05-02 21:26:00,
2013-05-02 17:32:00,73.0,38.0,30.29,SSE,161,4.0,6.0,28,0.00,,,0.00,Wunderground v.1.15,2013-05-02 21:32:00,
2013-05-02 17:38:00,73.3,39.1,30.29,East,88,4.0,12.0,29,0.00,,,0.00,Wunderground v.1.15,2013-05-02 21:38:00,
2013-05-02 17:44:00,72.4,40.0,30.29,South,178,7.0,13.0,31,0.00,,,0.00,Wunderground v.1.15,2013-05-02 21:44:00,
2013-05-02 17:50:00,72.5,40.1,30.29,SSE,159,7.0,9.0,31,0.00,,,0.00,Wunderground v.1.15,2013-05-02 21:50:00,
2013-05-02 17:56:00,72.1,39.8,30.28,SSE,165,5.0,9.0,31,0.00,,,0.00,Wunderground v.1.15,2013-05-02 21:56:00,
2013-05-02 18:02:00,72.2,40.7,30.28,SSE,165,6.0,6.0,32,0.00,,,0.00,Wunderground v.1.15,2013-05-02 22:02:00,
2013-05-02 18:08:00,71.3,39.1,30.28,ESE,120,5.0,7.0,31,0.00,,,0.00,Wunderground v.1.15,2013-05-02 22:08:00,
2013-05-02 18:14:00,71.1,40.5,30.28,SSW,211,5.0,7.0,33,0.00,,,0.00,Wunderground v.1.15,2013-05-02 22:14:00,
2013-05-02 18:20:00,71.6,42.5,30.28,SSW,205,4.0,4.0,35,0.00,,,0.00,Wunderground v.1.15,2013-05-02 22:20:00,
2013-05-02 18:26:00,70.5,40.8,30.28,ENE,73,3.0,4.0,34,0.00,,,0.00,Wunderground v.1.15,2013-05-02 22:26:00,
2013-05-02 18:32:00,70.5,39.2,30.28,SE,138,3.0,3.0,32,0.00,,,0.00,Wunderground v.1.15,2013-05-02 22:32:00,
2013-05-02 18:38:00,70.6,36.8,30.28,SSE,150,6.0,9.0,29,0.00,,,0.00,Wunderground v.1.15,2013-05-02 22:38:00,
2013-05-02 18:44:00,70.8,37.0,30.28,South,173,6.0,8.0,29,0.00,,,0.00,Wunderground v.1.15,2013-05-02 22:44:00,
2013-05-02 18:50:00,70.2,37.3,30.28,South,189,7.0,11.0,30,0.00,,,0.00,Wunderground v.1.15,2013-05-02 22:50:00,
2013-05-02 18:56:00,70.1,38.0,30.28,South,190,7.0,11.0,31,0.00,,,0.00,Wunderground v.1.15,2013-05-02 22:56:00,
2013-05-02 19:02:00,69.6,38.4,30.28,South,173,6.0,11.0,32,0.00,,,0.00,Wunderground v.1.15,2013-05-02 23:02:00,
2013-05-02 19:08:00,68.5,38.2,30.28,SSE,148,7.0,11.0,33,0.00,,,0.00,Wunderground v.1.15,2013-05-02 23:08:00,
2013-05-02 19:14:00,68.5,37.5,30.28,SE,128,5.0,8.0,32,0.00,,,0.00,Wunderground v.1.15,2013-05-02 23:14:00,
2013-05-02 19:20:00,68.4,38.2,30.28,SSE,150,3.0,5.0,33,0.00,,,0.00,Wunderground v.1.15,2013-05-02 23:20:00,
2013-05-02 19:26:00,67.6,38.2,30.28,SSE,161,5.0,8.0,34,0.00,,,0.00,Wunderground v.1.15,2013-05-02 23:26:00,
2013-05-02 19:32:00,66.8,39.7,30.28,South,184,4.0,7.0,37,0.00,,,0.00,Wunderground v.1.15,2013-05-02 23:32:00,
2013-05-02 19:38:00,66.3,39.2,30.28,South,175,3.0,7.0,37,0.00,,,0.00,Wunderground v.1.15,2013-05-02 23:38:00,
2013-05-02 19:44:00,66.1,39.7,30.28,SSW,199,4.0,6.0,38,0.00,,,0.00,Wunderground v.1.15,2013-05-02 23:44:00,
2013-05-02 19:50:00,65.6,40.6,30.28,SSE,155,4.0,8.0,40,0.00,,,0.00,Wunderground v.1.15,2013-05-02 23:50:00,
2013-05-02 19:56:00,65.2,40.3,30.28,South,174,4.0,8.0,40,0.00,,,0.00,Wunderground v.1.15,2013-05-02 23:56:00,
2013-05-02 20:02:00,64.8,39.9,30.28,South,183,3.0,4.0,40,0.00,,,0.00,Wunderground v.1.15,2013-05-03 00:02:00,
2013-05-02 20:08:00,64.2,40.6,30.28,South,184,2.0,4.0,42,0.00,,,0.00,Wunderground v.1.15,2013-05-03 00:08:00,
2013-05-02 20:14:00,63.6,40.7,30.28,South,184,2.0,3.0,43,0.00,,,0.00,Wunderground v.1.15,2013-05-03 00:14:00,
2013-05-02 20:20:00,63.0,41.3,30.28,South,184,1.0,1.0,45,0.00,,,0.00,Wunderground v.1.15,2013-05-03 00:20:00,
2013-05-02 20:26:00,62.3,42.3,30.28,South,186,1.0,1.0,48,0.00,,,0.00,Wunderground v.1.15,2013-05-03 00:26:00,
2013-05-02 20:32:00,61.4,42.1,30.28,South,186,1.0,1.0,49,0.00,,,0.00,Wunderground v.1.15,2013-05-03 00:32:00,
2013-05-02 20:38:00,60.5,42.8,30.29,South,186,1.0,1.0,52,0.00,,,0.00,Wunderground v.1.15,2013-05-03 00:38:00,
2013-05-02 20:44:00,59.4,44.2,30.29,South,186,0.0,1.0,57,0.00,,,0.00,Wunderground v.1.15,2013-05-03 00:44:00,
2013-05-02 20:50:00,58.6,42.5,30.29,South,188,0.0,0.0,55,0.00,,,0.00,Wunderground v.1.15,2013-05-03 00:50:00,
2013-05-02 20:56:00,58.2,43.5,30.29,South,187,0.0,1.0,58,0.00,,,0.00,Wunderground v.1.15,2013-05-03 00:56:00,
2013-05-02 21:02:00,57.8,43.1,30.29,SW,222,1.0,3.0,58,0.00,,,0.00,Wunderground v.1.15,2013-05-03 01:02:00,
2013-05-02 21:08:00,57.3,44.0,30.29,South,180,1.0,3.0,61,0.00,,,0.00,Wunderground v.1.15,2013-05-03 01:08:00,
2013-05-02 21:14:00,56.5,44.0,30.29,South,180,1.0,2.0,63,0.00,,,0.00,Wunderground v.1.15,2013-05-03 01:14:00,
2013-05-02 21:20:00,55.9,43.5,30.29,SW,219,1.0,1.0,63,0.00,,,0.00,Wunderground v.1.15,2013-05-03 01:20:00,
2013-05-02 21:26:00,55.2,44.0,30.29,SW,219,0.0,1.0,66,0.00,,,0.00,Wunderground v.1.15,2013-05-03 01:26:00,
2013-05-02 21:32:00,54.3,44.0,30.29,SW,216,0.0,1.0,68,0.00,,,0.00,Wunderground v.1.15,2013-05-03 01:32:00,
2013-05-02 21:38:00,53.5,43.6,30.29,South,169,1.0,5.0,69,0.00,,,0.00,Wunderground v.1.15,2013-05-03 01:38:00,
2013-05-02 21:44:00,53.3,43.8,30.29,South,169,1.0,2.0,70,0.00,,,0.00,Wunderground v.1.15,2013-05-03 01:44:00,
2013-05-02 21:50:00,52.7,43.6,30.29,WSW,243,1.0,1.0,71,0.00,,,0.00,Wunderground v.1.15,2013-05-03 01:50:00,
2013-05-02 21:56:00,52.3,43.5,30.29,South,185,1.0,3.0,72,0.00,,,0.00,Wunderground v.1.15,2013-05-03 01:56:00,
2013-05-02 22:02:00,52.1,43.7,30.29,South,188,1.0,1.0,73,0.00,,,0.00,Wunderground v.1.15,2013-05-03 02:02:00,
2013-05-02 22:08:00,51.9,43.5,30.29,South,188,1.0,3.0,73,0.00,,,0.00,Wunderground v.1.15,2013-05-03 02:08:00,
2013-05-02 22:14:00,51.6,43.2,30.29,SW,227,2.0,4.0,73,0.00,,,0.00,Wunderground v.1.15,2013-05-03 02:14:00,
2013-05-02 22:20:00,51.3,43.3,30.29,South,189,3.0,3.0,74,0.00,,,0.00,Wunderground v.1.15,2013-05-03 02:20:00,
2013-05-02 22:26:00,50.9,43.3,30.29,SSW,206,2.0,3.0,75,0.00,,,0.00,Wunderground v.1.15,2013-05-03 02:26:00,
2013-05-02 22:32:00,50.6,43.0,30.29,SW,217,2.0,2.0,75,0.00,,,0.00,Wunderground v.1.15,2013-05-03 02:32:00,
2013-05-02 22:38:00,50.1,43.2,30.29,SSW,211,2.0,3.0,77,0.00,,,0.00,Wunderground v.1.15,2013-05-03 02:38:00,
2013-05-02 22:44:00,49.9,43.0,30.29,SSW,211,2.0,3.0,77,0.00,,,0.00,Wunderground v.1.15,2013-05-03 02:44:00,
2013-05-02 22:50:00,50.0,42.7,30.29,South,173,3.0,3.0,76,0.00,,,0.00,Wunderground v.1.15,2013-05-03 02:50:00,
2013-05-02 22:56:00,50.1,42.8,30.29,South,173,2.0,3.0,76,0.00,,,0.00,Wunderground v.1.15,2013-05-03 02:56:00,
2013-05-02 23:02:00,50.2,42.9,30.29,SSW,192,0.0,1.0,76,0.00,,,0.00,Wunderground v.1.15,2013-05-03 03:02:00,
2013-05-02 23:08:00,50.1,42.8,30.29,SSW,193,0.0,1.0,76,0.00,,,0.00,Wunderground v.1.15,2013-05-03 03:08:00,
2013-05-02 23:14:00,50.1,42.8,30.29,SW,222,1.0,4.0,76,0.00,,,0.00,Wunderground v.1.15,2013-05-03 03:14:00,
2013-05-02 23:20:00,50.1,42.8,30.29,SW,223,1.0,2.0,76,0.00,,,0.00,Wunderground v.1.15,2013-05-03 03:20:00,
2013-05-02 23:26:00,49.8,42.9,30.29,SSW,202,2.0,5.0,77,0.00,,,0.00,Wunderground v.1.15,2013-05-03 03:26:00,
2013-05-02 23:32:00,49.3,42.4,30.29,SW,219,2.0,2.0,77,0.00,,,0.00,Wunderground v.1.15,2013-05-03 03:32:00,
2013-05-02 23:38:00,49.2,42.6,30.29,SSW,210,1.0,2.0,78,0.00,,,0.00,Wunderground v.1.15,2013-05-03 03:38:00,
2013-05-02 23:44:00,49.8,42.5,30.29,SW,231,2.0,4.0,76,0.00,,,0.00,Wunderground v.1.15,2013-05-03 03:44:00,
2013-05-02 23:50:00,49.8,42.5,30.29,SSW,211,2.0,2.0,76,0.00,,,0.00,Wunderground v.1.15,2013-05-03 03:50:00,
2013-05-02 23:56:00,49.4,42.5,30.28,SSW,212,1.0,2.0,77,0.00,,,0.00,Wunderground v.1.15,2013-05-03 03:56:00,